Regional Weather Roundup
Issued by NWS

Home | Current Version | Previous Version | Graphics & Text | Print | Product List | Glossary On
Versions: 1 2 3 4 5 6 7 8 9 10 11 12 13 14 15 16 17 18 19 20 21 22 23 24 25 26 27
000
ASUS45 KBOU 181007
RWRCO

WEATHER ROUNDUP FOR COLORADO
NATIONAL WEATHER SERVICE DENVER/BOULDER CO
400 AM MDT WED OCT 18 2017

NOTE: "FAIR" INDICATES FEW OR NO CLOUDS BELOW 12000 FEET WITH NO
SIGNIFICANT WEATHER AND/OR OBSTRUCTIONS TO VISIBILITY.

COZ001>005-013-030-031-181100-
...NORTHWEST COLORADO...

CITY           SKY/WX    TMP DP  RH WIND       PRES   REMARKS
CRAIG          FAIR      24  17  74 CALM      30.24R
HAYDEN         FAIR      34  16  47 E8        30.25S WCI  27
MEEKER         FAIR      31  16  54 CALM      30.24F
RABBIT EARS PA FAIR      37   1  22 W9G18     30.37S
STEAMBOAT SPGS FAIR      29  16  59 CALM      30.26S
WALDEN         FAIR      34  10  37 S9        30.28S WCI  26
$$

COZ006>008-011-181100-
...WEST CENTRAL VALLEYS...

CITY           SKY/WX    TMP DP  RH WIND       PRES   REMARKS
GRAND JUNCTION FAIR      42  15  33 E9        30.19F
MONTROSE       FAIR      35  15  44 SE5       30.26F WCI  31
EAGLE          FAIR      29  16  58 CALM      30.31F
RIFLE          FAIR      33  18  53 CALM      30.25F
DELTA          FAIR      36  11  35 NE3       30.24F
NUCLA          NOT AVBL
$$

COZ017>023-064>068-181100-
...SOUTHWEST COLORADO...

CITY           SKY/WX    TMP DP  RH WIND       PRES   REMARKS
DURANGO        FAIR      33  16  49 N6        30.27F WCI  28
CORTEZ         FAIR      31  16  54 E5        30.25F WCI  26
PAGOSA SPRINGS FAIR      31  15  50 NW3       30.32F
TELLURIDE      NOT AVBL
WOLF CREEK PAS FAIR      34   1  25 SW13      30.54F WCI  25
$$

COZ009-010-012-014-032>034-037-058>063-181100-
...CENTRAL COLORADO...

CITY           SKY/WX    TMP DP  RH WIND       PRES   REMARKS
ASPEN          FAIR      31  14  49 SE6       30.31F WCI  25
BUENA VISTA    FAIR      33  14  46 CALM      30.29F
COPPER MTN     FAIR      41   0  17 W8G20     30.48S HAZE
BERTHOUD PASS  FAIR      32  21  64 NW35G41   30.42F WCI  17
COTTONWOOD PAS FAIR      50  -9   8 W7        30.37S
GUNNISON       FAIR      24  12  60 CALM      30.38S
KREMMLING      FAIR      27  19  74 CALM      30.31F
LEADVILLE      FAIR      25   8  48 NE3       30.37F
SALIDA         NOT AVBL
SUNLIGHT       FAIR      36   0  21 SW10G17   30.46F
WILKERSON PASS FAIR      39  -2  17 W6        30.46F
$$

COZ069>075-181100-
...SAN LUIS VALLEY/SANGRE DE CRISTO MOUNTAINS...

CITY           SKY/WX    TMP DP  RH WIND       PRES   REMARKS
ALAMOSA        FAIR      26  17  68 SW8       30.29F WCI  18
DEL NORTE      FAIR      39  14  35 W14       30.32S
LA VETA PASS   FAIR      41  10  28 SW31G40   30.46S
SAGUACHE       FAIR      34   5  29 N10       30.31F WCI  26
$$

COZ035-036-038>040-181100-
...NORTHERN COLORADO FRONT RANGE...

CITY           SKY/WX    TMP DP  RH WIND       PRES   REMARKS
DENVER INTL AP MOCLDY    54  17  23 SW13      30.05F
DMNS CITY PARK   N/A     53  18  24 S6        30.06S
AURORA         PTCLDY    52  18  26 S10       30.08F
FRONT RANGE AP FAIR      57  19  23 SW12      30.07F
ERIE MUNI ARPT FAIR      62   9  12 SW9       30.09F
BOULDER MUN AP FAIR      64  14  14 CALM      30.04F
CENTENNIAL     FAIR      59  11  15 SW16      30.09F
BROOMFIELD     FAIR      63  10  13 W9        30.09S
FORT COLLINS   FAIR      47  32  56 CALM      30.04F
LONGMONT       FAIR      61  18  18 CALM      30.05F
$$

COZ041-046-047-076>085-087-088-181100-
...PIKES PEAK/PALMER DIVIDE AND SOUTHERN FOOTHILLS...

CITY           SKY/WX    TMP DP  RH WIND       PRES   REMARKS
COLO. SPRINGS  MOCLDY    45  26  47 N9        30.13F
A. F. ACADEMY  FAIR      49  11  21 N8        30.14F
SCHRIEVER AFB  MOCLDY    48  22  35 MISG      30.13F
CHEYENNE MTN   CLOUDY    59  10  14 NW7       30.11F
ELLICOTT       FAIR     N/A N/A N/A CALM      30.12F
FALCON         FAIR      49  16  27 NW7       30.16F
FORT CARSON    FAIR      48  19  31 NW10      30.10F
LIMON          FAIR      33  28  81 N7        30.08F WCI  27
MONUMENT HILL  FAIR      52  12  20 SW10      30.18F
CANON CITY     CLEAR     55  16  21 W12       30.10F
WALSENBURG     FAIR      55  14  19 W8        30.14S
TRINIDAD       FAIR      46  19  34 W10       30.12F
$$

COZ042>045-048>051-090-091-181100-
...NORTHEAST COLORADO...

CITY           SKY/WX    TMP DP  RH WIND       PRES   REMARKS
GREELEY ARPT   FAIR      38  33  82 N5        30.04S
AKRON          FAIR      54  21  27 W14       30.00F
BURLINGTON     FAIR      46  33  60 W10       30.01F
WRAY           FAIR      52  28  40 W12       29.96S
YUMA           FAIR      45  28  53 W7        29.97F
STERLING       FAIR      37  30  75 S6        29.98F
HOLYOKE        FAIR      41  32  70 W6        29.95F
FORT MORGAN    FAIR      49  23  36 W12       30.01S
$$

COZ086-089-092>099-181100-
...SOUTHEAST COLORADO...

CITY           SKY/WX    TMP DP  RH WIND       PRES   REMARKS
PUEBLO         FAIR      42  26  53 W7        30.07S
LA JUNTA       FAIR      41  30  65 W10       30.04F
LAMAR          FLURRIES  32  29  88 SW9       30.01S WCI  24
SPRINGFIELD      N/A     40  33  76 CALM      30.03F
$$




USA.gov is the U.S. government's official web portal to all federal, state and local government web resources and services.